Temp
-14 -14 -14 -14 -14 -14 -14 -14 -14 -14 -14 -14 -14 -14 -14 -14 -14 -14 -14 -14 -14 -14 -14 -14 -14 -14 -14 -14 -14 -14 -14 -14 -15 -15 -15 -15 -15 -15 -15 -15 -15 -16
-14 -14 -14 -14 -14 -14 -14 -14 -14 -14 -14 -14 -14 -14 -14 -14 -14 -14 -14 -14 -14 -14 -14 -14 -14 -14 -14 -14 -14 -14 -14 -14 -15 -15 -15 -15 -15 -15 -16 -16 -16 -16
-14 -14 -14 -14 -14 -14 -14 -14 -14 -14 -14 -14 -14 -14 -14 -14 -14 -14 -14 -14 -14 -14 -14 -14 -14 -14 -14 -14 -14 -14 -14 -15 -15 -15 -15 -15 -16 -16 -16 -16 -16 -16
-14 -14 -14 -14 -14 -14 -14 -14 -14 -14 -14 -14 -14 -15 -15 -15 -15 -15 -14 -14 -14 -14 -14 -14 -14 -14 -14 -14 -14 -14 -15 -15 -15 -15 -15 -16 -16 -16 -16 -16 -16 -16
-14 -14 -14 -14 -14 -14 -14 -14 -14 -14 -14 -14 -15 -15 -15 -15 -15 -14 -14 -14 -14 -14 -14 -14 -14 -14 -14 -14 -14 -15 -15 -15 -15 -15 -16 -16 -16 -16 -16 -16 -16 -16
-14 -14 -14 -14 -14 -14 -14 -14 -14 -14 -14 -15 -15 -15 -15 -14 -14 -14 -14 -14 -14 -14 -14 -14 -14 -14 -14 -14 -15 -15 -15 -15 -15 -15 -16 -16 -16 -16 -16 -16 -16 -16
-14 -14 -14 -14 -14 -14 -14 -14 -14 -15 -15 -15 -15 -15 -14 -14 -14 -14 -15 -15 -14 -14 -14 -14 -14 -14 -14 -14 -15 -15 -15 -15 -15 -16 -16 -16 -16 -16 -16 -16 -16 -16
-14 -14 -14 -14 -14 -14 -14 -14 -15 -15 -15 -15 -15 -14 -14 -14 -15 -15 -15 -15 -14 -14 -14 -14 -14 -14 -14 -14 -15 -15 -15 -15 -15 -16 -16 -16 -16 -16 -16 -16 -16 -16
-14 -14 -14 -14 -14 -14 -14 -14 -15 -15 -15 -15 -15 -15 -15 -15 -15 -15 -15 -14 -14 -14 -14 -14 -14 -14 -14 -14 -15 -15 -15 -15 -16 -16 -16 -16 -16 -16 -16 -16 -16 -16
-15 -14 -15 -15 -15 -15 -15 -15 -15 -15 -15 -15 -15 -15 -15 -15 -15 -15 -15 -14 -14 -14 -14 -14 -14 -14 -14 -15 -15 -15 -15 -16 -16 -16 -16 -16 -16 -16 -16 -16 -16 -16
-15 -15 -15 -15 -15 -15 -15 -15 -15 -15 -15 -15 -15 -15 -15 -15 -15 -15 -14 -14 -14 -14 -14 -14 -14 -14 -15 -15 -15 -15 -16 -16 -16 -16 -16 -16 -17 -17 -17 -17 -17 -17
-15 -15 -15 -15 -15 -15 -15 -15 -15 -15 -15 -15 -15 -15 -15 -15 -15 -15 -14 -14 -14 -14 -14 -14 -15 -15 -15 -15 -16 -16 -16 -16 -16 -16 -16 -17 -17 -17 -17 -17 -17 -17
-14 -15 -15 -15 -15 -15 -15 -15 -15 -15 -15 -15 -15 -15 -15 -15 -15 -15 -15 -14 -14 -14 -15 -15 -15 -15 -15 -16 -16 -16 -16 -16 -16 -16 -17 -17 -17 -17 -17 -17 -17 -17
-14 -15 -15 -15 -15 -15 -15 -15 -15 -15 -15 -15 -15 -15 -15 -15 -15 -15 -15 -15 -15 -15 -15 -15 -15 -16 -16 -16 -16 -16 -16 -17 -16 -16 -17 -17 -17 -17 -17 -17 -17 -17
-14 -15 -15 -15 -15 -15 -15 -15 -15 -15 -15 -15 -15 -15 -15 -15 -15 -15 -15 -15 -15 -15 -15 -15 -16 -16 -16 -16 -17 -17 -17 -17 -17 -17 -17 -17 -17 -17 -17 -17 -17 -18
-14 -15 -15 -15 -15 -15 -15 -15 -15 -15 -15 -15 -15 -15 -15 -15 -15 -15 -15 -15 -15 -15 -16 -16 -16 -16 -17 -17 -17 -17 -17 -17 -17 -17 -17 -17 -17 -17 -17 -18 -18 -18
-15 -15 -15 -15 -15 -15 -15 -16 -16 -15 -15 -15 -15 -15 -15 -15 -15 -15 -15 -16 -16 -16 -16 -16 -16 -17 -17 -17 -17 -17 -17 -17 -17 -17 -17 -17 -17 -18 -18 -18 -18 -18
-15 -15 -15 -15 -15 -16 -16 -16 -16 -16 -16 -16 -16 -16 -16 -16 -16 -16 -16 -16 -16 -16 -16 -16 -17 -17 -17 -17 -17 -17 -17 -17 -17 -17 -17 -18 -18 -18 -18 -18 -18 -18
-15 -15 -15 -15 -16 -16 -16 -16 -16 -16 -16 -16 -16 -16 -16 -16 -16 -16 -16 -16 -16 -16 -17 -17 -17 -17 -17 -17 -17 -17 -17 -17 -18 -18 -18 -18 -18 -18 -18 -18 -19 -19
-15 -15 -15 -16 -16 -16 -16 -16 -16 -16 -16 -16 -16 -16 -16 -16 -16 -16 -16 -16 -17 -17 -17 -17 -17 -17 -17 -17 -17 -17 -17 -18 -18 -18 -18 -18 -18 -18 -19 -19 -19 -19
-15 -16 -16 -16 -16 -16 -16 -16 -16 -16 -16 -16 -16 -16 -16 -16 -16 -17 -17 -17 -17 -17 -17 -17 -17 -17 -17 -17 -17 -17 -18 -18 -18 -18 -18 -19 -19 -19 -19 -19 -19 -20
-16 -16 -16 -16 -16 -16 -16 -16 -16 -16 -16 -16 -16 -16 -16 -17 -17 -17 -17 -17 -17 -17 -17 -17 -17 -17 -17 -17 -18 -18 -18 -18 -18 -19 -19 -19 -19 -19 -19 -19 -20 -20
-16 -16 -16 -16 -16 -16 -16 -16 -16 -16 -16 -16 -16 -17 -17 -17 -17 -17 -17 -17 -17 -17 -17 -17 -17 -17 -17 -18 -18 -18 -18 -18 -19 -19 -19 -19 -19 -19 -19 -20 -20 -20
-16 -16 -16 -16 -16 -16 -16 -16 -17 -16 -17 -17 -17 -17 -17 -17 -17 -17 -17 -17 -17 -17 -17 -17 -17 -18 -18 -18 -18 -18 -18 -19 -19 -19 -19 -19 -19 -20 -20 -20 -21 -21
-16 -16 -16 -16 -16 -17 -17 -17 -17 -17 -17 -17 -17 -17 -17 -17 -17 -17 -17 -17 -18 -17 -17 -18 -18 -18 -18 -18 -18 -18 -19 -19 -19 -19 -19 -19 -20 -20 -20 -21 -21 -21
-16 -16 -16 -17 -17 -17 -17 -17 -17 -17 -17 -17 -17 -17 -17 -17 -18 -18 -18 -18 -18 -18 -18 -18 -18 -18 -18 -18 -18 -19 -19 -19 -19 -19 -19 -20 -20 -20 -21 -21 -21 -21
Height
5808 5809 5810 5811 5812 5812 5812 5812 5812 5813 5813 5813 5812 5811 5811 5810 5809 5807 5806 5805 5804 5803 5802 5800 5799 5798 5796 5795 5793 5792 5790 5789 5787 5785 5783 5781 5779 5776 5774 5772 5770 5768
5806 5808 5809 5810 5810 5810 5810 5810 5810 5810 5810 5809 5809 5808 5808 5807 5806 5805 5804 5802 5801 5800 5799 5798 5797 5795 5793 5792 5791 5789 5787 5785 5783 5781 5779 5776 5774 5771 5769 5767 5765 5763
5805 5806 5807 5807 5808 5808 5808 5808 5808 5807 5807 5806 5806 5806 5806 5804 5803 5802 5801 5800 5799 5798 5797 5795 5794 5792 5791 5789 5787 5785 5784 5781 5779 5776 5774 5771 5769 5767 5764 5763 5760 5758
5803 5804 5805 5805 5806 5806 5806 5806 5806 5805 5805 5805 5805 5804 5803 5802 5801 5800 5799 5798 5797 5796 5794 5793 5791 5789 5787 5786 5784 5781 5779 5777 5774 5772 5769 5767 5764 5762 5760 5758 5756 5753
5801 5802 5803 5803 5804 5804 5804 5804 5804 5804 5804 5804 5803 5802 5801 5800 5799 5798 5797 5796 5794 5793 5791 5790 5788 5786 5784 5782 5780 5777 5775 5772 5769 5767 5765 5762 5760 5757 5756 5754 5751 5749
5800 5801 5801 5802 5802 5802 5802 5802 5802 5802 5802 5801 5801 5800 5799 5798 5797 5795 5794 5793 5791 5790 5788 5786 5784 5782 5780 5778 5775 5773 5770 5768 5765 5763 5760 5758 5755 5753 5751 5749 5747 5744
5798 5799 5799 5800 5800 5800 5800 5800 5800 5800 5799 5799 5798 5797 5796 5795 5794 5793 5791 5790 5788 5787 5785 5783 5781 5778 5776 5774 5771 5768 5766 5763 5761 5758 5756 5754 5751 5749 5747 5745 5742 5739
5797 5797 5797 5797 5798 5798 5798 5798 5798 5797 5797 5796 5795 5794 5794 5793 5792 5790 5788 5787 5785 5783 5781 5779 5777 5775 5772 5770 5767 5764 5762 5759 5757 5754 5752 5750 5748 5745 5743 5741 5738 5735
5794 5795 5795 5795 5796 5796 5796 5795 5795 5795 5794 5793 5792 5792 5791 5790 5788 5787 5785 5783 5782 5780 5778 5776 5773 5771 5768 5766 5763 5761 5758 5756 5753 5751 5749 5746 5743 5740 5738 5736 5733 5731
5792 5792 5793 5793 5793 5793 5793 5793 5793 5792 5791 5791 5790 5789 5788 5787 5785 5783 5782 5780 5778 5776 5774 5772 5769 5767 5764 5762 5760 5757 5755 5752 5750 5747 5745 5742 5739 5736 5734 5732 5729 5727
5790 5790 5791 5791 5791 5791 5791 5791 5790 5790 5789 5788 5787 5786 5785 5783 5782 5780 5778 5776 5774 5773 5770 5768 5766 5763 5761 5758 5756 5754 5752 5749 5746 5744 5741 5738 5735 5733 5730 5728 5725 5723
5787 5788 5789 5789 5789 5789 5789 5788 5788 5787 5786 5785 5784 5783 5781 5780 5778 5777 5775 5773 5771 5769 5767 5764 5762 5760 5757 5755 5752 5750 5748 5745 5743 5741 5738 5735 5732 5729 5726 5724 5721 5718
5785 5786 5786 5786 5786 5786 5786 5786 5785 5784 5783 5782 5781 5780 5778 5777 5775 5773 5771 5769 5767 5765 5763 5761 5758 5756 5754 5751 5749 5747 5744 5742 5739 5737 5735 5732 5729 5726 5723 5720 5717 5714
5782 5783 5783 5784 5783 5783 5783 5783 5782 5781 5779 5779 5778 5777 5775 5773 5771 5769 5768 5766 5764 5762 5759 5757 5754 5752 5750 5748 5746 5743 5741 5739 5736 5734 5732 5728 5726 5723 5719 5716 5712 5709
5780 5780 5780 5780 5780 5780 5780 5780 5779 5777 5776 5776 5775 5773 5772 5770 5768 5766 5764 5762 5760 5758 5755 5753 5751 5748 5746 5744 5742 5740 5738 5735 5732 5730 5728 5725 5722 5719 5715 5712 5708 5704
5777 5777 5777 5777 5777 5777 5777 5776 5775 5774 5774 5773 5771 5770 5768 5766 5765 5763 5761 5759 5756 5754 5752 5749 5747 5745 5743 5741 5739 5737 5734 5732 5729 5727 5724 5721 5718 5715 5711 5707 5704 5700
5773 5774 5774 5775 5775 5774 5774 5773 5772 5771 5770 5769 5768 5766 5765 5763 5761 5759 5757 5755 5753 5750 5748 5746 5744 5742 5740 5738 5736 5733 5731 5728 5726 5723 5720 5718 5714 5711 5707 5703 5700 5696
5770 5771 5771 5771 5771 5771 5770 5769 5768 5767 5767 5766 5764 5763 5761 5759 5758 5756 5753 5751 5749 5747 5745 5743 5741 5738 5736 5734 5732 5730 5728 5725 5723 5720 5717 5713 5710 5707 5703 5699 5696 5692
5767 5768 5768 5768 5768 5768 5767 5766 5765 5764 5763 5762 5760 5759 5757 5756 5754 5752 5750 5748 5746 5743 5741 5739 5737 5735 5733 5731 5730 5728 5725 5722 5719 5716 5713 5709 5706 5702 5699 5695 5692 5688
5764 5764 5764 5764 5764 5764 5764 5763 5761 5760 5759 5758 5757 5755 5753 5752 5750 5748 5746 5744 5742 5740 5738 5736 5734 5732 5731 5729 5727 5725 5722 5718 5715 5712 5709 5705 5702 5699 5695 5692 5688 5684
5760 5761 5761 5761 5760 5760 5760 5759 5758 5756 5755 5754 5753 5751 5749 5748 5746 5744 5743 5741 5739 5737 5735 5733 5731 5730 5728 5726 5724 5721 5718 5715 5711 5708 5705 5702 5698 5695 5692 5688 5684 5681
5757 5757 5757 5757 5757 5756 5756 5755 5754 5753 5751 5750 5749 5748 5746 5744 5743 5741 5739 5738 5736 5734 5732 5731 5729 5727 5725 5723 5720 5718 5715 5712 5708 5705 5701 5698 5695 5692 5688 5685 5681 5677
5752 5753 5753 5753 5753 5752 5752 5751 5750 5749 5748 5746 5745 5744 5742 5741 5739 5738 5736 5735 5733 5731 5730 5728 5726 5724 5722 5719 5717 5714 5711 5708 5705 5702 5698 5695 5692 5689 5685 5682 5678 5675
5748 5749 5749 5749 5749 5748 5748 5747 5746 5746 5744 5743 5742 5740 5739 5737 5736 5735 5733 5732 5730 5729 5727 5725 5723 5721 5718 5716 5713 5710 5707 5705 5702 5699 5695 5692 5689 5685 5682 5679 5676 5673
5744 5745 5745 5745 5745 5744 5744 5743 5743 5742 5741 5740 5738 5737 5736 5734 5733 5732 5730 5729 5727 5726 5724 5722 5720 5718 5715 5712 5710 5707 5704 5701 5699 5696 5693 5689 5686 5683 5680 5676 5673 5670
5741 5741 5741 5741 5741 5741 5740 5740 5739 5738 5738 5737 5735 5734 5732 5731 5730 5729 5727 5726 5724 5723 5721 5719 5717 5714 5712 5709 5706 5704 5701 5698 5695 5692 5690 5687 5683 5680 5677 5674 5671 5668
Wind_Speed
13 14 13 13 12 12 13 14 15 15 14 15 17 17 17 18 18 20 20 21 23 24 25 26 28 29 31 32 33 34 35 36 37 38 39 39 39 40 40 40 40 41
12 12 12 12 11 12 13 15 15 15 16 17 17 18 18 19 20 20 21 22 24 25 27 28 29 31 32 33 34 36 37 38 38 39 40 40 41 41 41 41 41 42
10 10 11 11 12 13 14 15 16 16 17 17 18 18 19 19 20 21 22 24 25 27 28 30 31 32 34 35 36 37 38 39 39 40 41 41 41 41 42 42 42 43
10 11 12 13 14 15 15 15 16 16 17 18 18 18 18 19 21 23 24 26 27 28 29 31 32 34 35 36 38 39 39 40 41 41 41 41 42 42 43 43 43 43
11 12 14 15 15 15 16 16 15 16 17 17 17 18 19 21 23 25 26 27 28 29 31 32 34 35 37 38 39 40 40 41 41 41 42 42 43 43 43 43 43 43
13 14 15 15 15 16 16 15 15 16 17 17 18 20 22 24 25 26 27 29 30 31 32 34 35 37 38 39 40 40 41 41 42 42 42 43 43 43 42 42 42 42
14 15 15 15 16 16 16 16 16 17 18 19 20 22 24 25 26 28 29 30 31 32 34 35 37 38 39 40 40 41 42 42 42 42 42 42 42 41 41 40 41 41
15 15 16 16 16 17 17 18 18 19 19 21 22 24 25 26 28 29 30 31 32 33 35 36 37 39 40 40 41 42 42 42 41 41 40 41 41 41 41 41 42 43
15 16 16 17 18 19 20 20 20 20 21 22 24 25 27 28 29 30 31 32 33 35 36 37 39 40 41 41 42 42 41 41 40 39 40 40 41 41 42 43 43 44
16 16 17 19 20 21 21 22 22 22 23 24 26 27 28 29 30 31 32 33 34 35 37 38 40 41 41 41 41 41 40 39 39 39 40 41 41 42 43 44 44 45
18 18 19 20 21 22 23 23 23 24 25 26 27 28 29 30 31 32 33 34 35 36 38 39 40 41 41 40 40 39 38 38 38 39 40 40 41 42 43 44 45 46
20 20 21 22 23 24 24 25 26 26 27 27 28 29 30 31 32 33 34 35 36 37 38 39 40 40 39 38 37 37 37 38 38 39 40 41 42 43 44 45 46 46
23 23 23 24 25 25 26 27 27 27 27 28 29 30 32 33 34 34 35 35 37 38 38 39 39 38 37 35 35 35 37 38 39 39 40 41 42 44 45 45 46 46
25 24 25 25 26 26 27 28 28 28 28 29 30 32 33 34 34 35 35 36 37 37 38 37 37 35 34 33 34 35 36 37 38 39 41 42 43 44 44 45 45 45
25 25 25 25 26 27 28 29 29 29 29 30 32 33 34 34 35 35 36 36 36 36 36 35 33 32 32 33 34 34 36 37 39 40 41 42 43 43 43 44 44 45
26 26 26 26 26 28 30 30 30 30 30 31 33 34 35 35 35 35 35 35 35 34 33 32 31 31 31 32 33 34 36 38 40 41 41 42 42 42 42 43 44 45
27 27 27 27 28 30 31 30 31 31 32 33 35 35 35 35 35 35 34 34 33 32 31 30 31 31 31 31 33 35 37 38 40 41 41 41 41 41 42 43 44 45
27 28 28 29 30 30 31 31 31 32 34 35 35 35 35 35 35 34 33 32 31 30 30 30 30 30 30 32 34 36 37 39 39 40 40 40 40 41 42 43 44 45
28 29 30 30 30 31 31 32 33 34 35 35 35 35 34 35 34 33 32 31 31 30 31 31 30 30 31 33 35 36 38 39 39 39 39 40 41 41 42 43 44 45
29 30 30 31 31 31 32 33 34 35 35 35 34 34 34 34 33 32 31 31 31 31 31 30 30 30 32 34 36 37 38 38 38 38 39 40 41 42 43 44 45 44
29 30 30 31 31 32 32 33 34 35 35 34 34 34 34 33 32 31 31 31 31 31 30 30 30 31 33 35 36 37 37 37 37 38 39 40 41 42 43 44 43 42
28 29 30 31 31 31 32 33 33 33 33 33 33 33 33 32 31 31 31 31 31 30 30 30 31 32 34 35 36 37 37 36 37 38 39 40 41 42 43 42 41 40
27 28 28 29 30 31 32 32 32 32 32 33 32 32 31 31 30 30 31 31 30 29 29 30 32 33 34 35 36 36 36 36 36 37 39 40 42 42 42 40 39 37
27 28 28 28 30 30 31 31 32 32 31 31 31 31 30 30 30 30 30 30 29 29 29 31 32 34 34 35 35 35 35 36 36 38 39 40 41 41 39 38 36 35
28 28 29 29 30 30 30 31 31 31 31 30 30 30 30 30 29 29 29 29 28 29 30 32 33 34 34 35 34 34 35 36 37 38 39 40 40 39 37 35 34 33
29 29 29 29 29 29 30 31 31 31 30 30 30 30 30 29 29 29 29 28 28 29 31 32 33 34 34 34 33 34 34 36 37 38 39 39 38 36 34 33 33 32
Wind_Direction
224 229 233 233 234 236 241 248 256 264 269 271 275 281 288 293 298 301 305 307 309 311 313 313 313 312 312 312 311 311 311 311 310 309 309 310 310 310 310 311 310 310
228 233 237 240 244 247 251 259 269 276 278 280 286 292 295 297 299 302 305 307 308 310 311 311 310 310 310 310 310 309 309 309 309 309 310 310 310 310 310 310 309 309
236 240 246 251 254 256 261 268 275 279 282 287 291 293 294 296 298 301 304 305 306 308 309 309 309 309 309 309 309 309 309 309 310 310 310 310 309 308 308 308 308 308
247 254 258 260 261 264 268 271 275 279 283 287 288 289 292 296 298 300 303 304 305 307 308 308 308 308 309 308 308 309 310 310 310 310 310 309 308 307 307 307 307 306
257 260 261 263 266 269 271 273 276 279 283 286 288 292 295 297 299 301 303 304 305 307 308 308 308 308 308 309 309 310 310 311 311 311 310 310 308 307 307 307 307 307
258 260 263 266 269 271 273 276 279 282 285 288 291 295 297 298 300 302 303 304 306 307 308 308 308 308 309 309 310 310 311 311 311 311 311 311 310 309 308 308 308 306
257 262 265 268 270 273 275 278 281 284 286 290 293 296 298 300 301 302 303 304 306 308 308 308 308 309 309 310 310 310 310 311 311 311 311 311 311 309 309 309 308 307
257 263 267 271 273 275 278 280 283 286 289 293 296 299 300 301 301 301 303 305 307 308 308 308 309 309 309 309 309 310 310 311 311 310 310 310 310 309 309 309 308 308
258 264 269 273 275 277 280 283 285 289 292 295 298 299 300 300 301 302 304 306 307 308 308 308 309 309 309 309 309 309 310 311 311 310 309 309 309 310 310 309 309 308
255 262 267 271 274 277 280 284 287 289 292 294 296 298 299 300 302 303 305 306 307 307 308 308 308 309 308 308 308 308 309 311 311 310 309 310 310 310 310 310 309 308
252 258 264 268 272 276 279 283 286 288 291 293 296 299 300 302 303 304 305 306 306 307 307 308 308 308 307 307 307 309 310 311 310 310 310 311 311 310 310 309 308 307
250 256 261 265 270 274 277 281 284 287 291 294 297 300 302 303 303 304 305 305 306 307 307 307 307 306 307 308 309 310 311 311 311 311 311 311 311 310 309 308 307 306
250 254 258 262 266 271 275 279 283 288 292 296 299 301 302 302 303 304 305 305 305 306 306 306 306 307 308 309 310 311 311 311 312 312 311 311 310 309 309 308 307 307
252 253 256 260 265 270 276 280 285 289 293 297 300 301 301 302 303 304 304 304 305 306 306 306 307 308 309 310 311 311 311 311 311 311 311 310 310 309 308 308 308 308
255 255 257 260 266 272 277 281 285 289 293 296 299 300 301 302 302 302 303 304 305 306 307 308 308 309 309 310 311 311 311 311 312 311 311 310 309 309 309 309 310 311
257 256 257 260 266 272 276 281 285 289 293 296 298 299 300 301 301 301 302 304 306 306 307 307 307 308 309 309 310 311 312 313 312 312 311 310 310 310 311 312 313 313
257 256 257 260 266 272 276 281 285 289 293 296 298 299 299 299 299 301 303 305 306 306 306 306 306 307 308 310 311 313 314 313 312 311 311 311 311 312 313 314 314 315
257 256 258 262 267 273 277 282 286 289 292 295 297 297 297 298 300 302 304 304 304 304 304 305 306 307 309 311 312 313 313 312 311 311 312 312 314 314 315 316 316 317
255 256 259 264 269 274 278 281 284 287 291 295 296 296 297 298 301 302 303 304 304 304 304 305 307 308 309 311 312 313 313 312 312 313 314 315 316 316 317 317 318 318
253 256 260 265 270 273 276 279 283 287 292 294 295 296 297 299 301 302 303 303 303 304 305 306 307 308 309 311 312 313 313 313 314 315 316 316 317 318 318 319 320 320
255 258 261 265 268 271 274 278 284 289 293 294 294 296 298 300 302 302 302 303 303 304 305 306 306 307 309 311 312 313 314 315 316 317 317 318 319 319 320 321 321 322
258 259 261 263 265 270 275 281 287 291 293 294 295 297 299 301 301 302 302 302 303 303 304 305 306 307 309 311 313 314 315 316 317 317 318 319 320 321 321 322 323 324
260 261 261 263 268 274 280 285 290 292 293 294 296 299 300 300 301 301 302 302 302 303 304 304 306 308 310 312 313 315 316 317 317 318 319 320 321 322 323 323 324 325
262 263 264 268 273 279 283 288 290 291 292 295 298 299 300 300 301 301 301 302 302 302 303 304 306 309 311 313 314 315 316 317 318 319 321 322 323 323 324 325 325 326
261 263 267 272 277 281 285 288 290 290 293 296 299 299 299 300 301 301 301 302 302 302 303 305 308 310 312 313 314 316 317 318 319 320 322 323 323 324 325 326 326 327
261 265 269 274 278 282 286 288 288 290 294 297 299 299 300 300 300 300 301 301 301 302 304 307 309 311 312 314 315 317 317 318 320 322 323 323 324 324 325 327 328 329